Year,Month,Day,Hour,Minute,Value (Times are PST for temperature in C)
2006,07,08,00,00,14.70
2006,07,08,00,01,14.70
2006,07,08,00,02,14.70
2006,07,08,00,03,14.70
2006,07,08,00,04,14.70
2006,07,08,00,05,14.70
2006,07,08,00,06,14.60
2006,07,08,00,07,14.60
2006,07,08,00,08,14.60
2006,07,08,00,09,14.60
2006,07,08,00,10,14.60
2006,07,08,00,11,14.60
2006,07,08,00,12,14.50
2006,07,08,00,13,14.50
2006,07,08,00,14,14.40
2006,07,08,00,15,14.30
2006,07,08,00,16,14.20
2006,07,08,00,17,14.20
2006,07,08,00,18,14.10
2006,07,08,00,19,14.00
2006,07,08,00,20,13.90
2006,07,08,00,21,13.90
2006,07,08,00,22,13.80
2006,07,08,00,23,13.80
2006,07,08,00,24,13.80
2006,07,08,00,25,13.70
2006,07,08,00,26,13.70
2006,07,08,00,27,13.70
2006,07,08,00,28,13.70
2006,07,08,00,29,13.70
2006,07,08,00,30,13.70
2006,07,08,00,31,13.60
2006,07,08,00,32,13.60
2006,07,08,00,33,13.60
2006,07,08,00,34,13.60
2006,07,08,00,35,13.60
2006,07,08,00,36,13.60
2006,07,08,00,37,13.60
2006,07,08,00,38,13.60
2006,07,08,00,39,13.50
2006,07,08,00,40,13.50
2006,07,08,00,41,13.50
2006,07,08,00,42,13.50
2006,07,08,00,43,13.50
2006,07,08,00,44,13.50
2006,07,08,00,45,13.50
2006,07,08,00,46,13.50
2006,07,08,00,47,13.40
2006,07,08,00,48,13.40
2006,07,08,00,49,13.40
2006,07,08,00,50,13.40
2006,07,08,00,51,13.40
2006,07,08,00,52,13.40
2006,07,08,00,53,13.40
2006,07,08,00,54,13.30
2006,07,08,00,55,13.30
2006,07,08,00,56,13.30
2006,07,08,00,57,13.40
2006,07,08,00,58,13.40
2006,07,08,00,59,13.40
2006,07,08,01,00,13.40
2006,07,08,01,01,13.40
2006,07,08,01,02,13.40
2006,07,08,01,03,13.40
2006,07,08,01,04,13.40
2006,07,08,01,05,13.40
2006,07,08,01,06,13.40
2006,07,08,01,07,13.40
2006,07,08,01,08,13.40
2006,07,08,01,09,13.40
2006,07,08,01,10,13.40
2006,07,08,01,11,13.40
2006,07,08,01,12,13.40
2006,07,08,01,13,13.30
2006,07,08,01,14,13.40
2006,07,08,01,15,13.40
2006,07,08,01,16,13.40
2006,07,08,01,17,13.40
2006,07,08,01,18,13.40
2006,07,08,01,19,13.40
2006,07,08,01,20,13.40
2006,07,08,01,21,13.50
2006,07,08,01,22,13.50
2006,07,08,01,23,13.50
2006,07,08,01,24,13.50
2006,07,08,01,25,13.40
2006,07,08,01,26,13.40
2006,07,08,01,27,13.40
2006,07,08,01,28,13.50
2006,07,08,01,29,13.50
2006,07,08,01,30,13.50
2006,07,08,01,31,13.50
2006,07,08,01,32,13.50
2006,07,08,01,33,13.50
2006,07,08,01,34,13.50
2006,07,08,01,35,13.50
2006,07,08,01,36,13.50
2006,07,08,01,37,13.50
2006,07,08,01,38,13.50
2006,07,08,01,39,13.50
2006,07,08,01,40,13.50
2006,07,08,01,41,13.50
2006,07,08,01,42,13.50
2006,07,08,01,43,13.50
2006,07,08,01,44,13.40
2006,07,08,01,45,13.40
2006,07,08,01,46,13.40
2006,07,08,01,47,13.30
2006,07,08,01,48,13.30
2006,07,08,01,49,13.30
2006,07,08,01,50,13.30
2006,07,08,01,51,13.30
2006,07,08,01,52,13.30
2006,07,08,01,53,13.20
2006,07,08,01,54,13.20
2006,07,08,01,55,13.20
2006,07,08,01,56,13.20
2006,07,08,01,57,13.20
2006,07,08,01,58,13.20
2006,07,08,01,59,13.10
2006,07,08,02,00,13.10
2006,07,08,02,01,13.10
2006,07,08,02,02,13.00
2006,07,08,02,03,13.00
2006,07,08,02,04,13.00
2006,07,08,02,05,12.90
2006,07,08,02,06,12.90
2006,07,08,02,07,12.90
2006,07,08,02,08,12.90
2006,07,08,02,09,12.80
2006,07,08,02,10,12.80
2006,07,08,02,11,12.80
2006,07,08,02,12,12.80
2006,07,08,02,13,12.80
2006,07,08,02,14,12.90
2006,07,08,02,15,12.90
2006,07,08,02,16,12.90
2006,07,08,02,17,12.90
2006,07,08,02,18,12.90
2006,07,08,02,19,12.90
2006,07,08,02,20,12.90
2006,07,08,02,21,12.80
2006,07,08,02,22,12.80
2006,07,08,02,23,12.80
2006,07,08,02,24,12.80
2006,07,08,02,25,12.80
2006,07,08,02,26,12.80
2006,07,08,02,27,12.80
2006,07,08,02,28,12.80
2006,07,08,02,29,12.80
2006,07,08,02,30,12.80
2006,07,08,02,31,12.80
2006,07,08,02,32,12.80
2006,07,08,02,33,12.80
2006,07,08,02,34,12.80
2006,07,08,02,35,12.80
2006,07,08,02,36,12.70
2006,07,08,02,37,12.70
2006,07,08,02,38,12.70
2006,07,08,02,39,12.70
2006,07,08,02,40,12.60
2006,07,08,02,41,12.60
2006,07,08,02,42,12.60
2006,07,08,02,43,12.60
2006,07,08,02,44,12.60
2006,07,08,02,45,12.50
2006,07,08,02,46,12.50
2006,07,08,02,47,12.50
2006,07,08,02,48,12.50
2006,07,08,02,49,12.50
2006,07,08,02,50,12.50
2006,07,08,02,51,12.50
2006,07,08,02,52,12.50
2006,07,08,02,53,12.50
2006,07,08,02,54,12.50
2006,07,08,02,55,12.50
2006,07,08,02,56,12.50
2006,07,08,02,57,12.50
2006,07,08,02,58,12.50
2006,07,08,02,59,12.50
2006,07,08,03,00,12.40
2006,07,08,03,01,12.40
2006,07,08,03,02,12.40
2006,07,08,03,03,12.40
2006,07,08,03,04,12.40
2006,07,08,03,05,12.40
2006,07,08,03,06,12.40
2006,07,08,03,07,12.40
2006,07,08,03,08,12.40
2006,07,08,03,09,12.40
2006,07,08,03,10,12.40
2006,07,08,03,11,12.30
2006,07,08,03,12,12.30
2006,07,08,03,13,12.30
2006,07,08,03,14,12.30
2006,07,08,03,15,12.30
2006,07,08,03,16,12.30
2006,07,08,03,17,12.30
2006,07,08,03,18,12.30
2006,07,08,03,19,12.30
2006,07,08,03,20,12.30
2006,07,08,03,21,12.30
2006,07,08,03,22,12.20
2006,07,08,03,23,12.20
2006,07,08,03,24,12.20
2006,07,08,03,25,12.20
2006,07,08,03,26,12.20
2006,07,08,03,27,12.10
2006,07,08,03,28,12.10
2006,07,08,03,29,12.10
2006,07,08,03,30,12.10
2006,07,08,03,31,12.10
2006,07,08,03,32,12.10
2006,07,08,03,33,12.10
2006,07,08,03,34,12.10
2006,07,08,03,35,12.10
2006,07,08,03,36,12.10
2006,07,08,03,37,12.10
2006,07,08,03,38,12.10
2006,07,08,03,39,12.10
2006,07,08,03,40,12.00
2006,07,08,03,41,12.00
2006,07,08,03,42,12.00
2006,07,08,03,43,12.00
2006,07,08,03,44,12.00
2006,07,08,03,45,11.90
2006,07,08,03,46,11.90
2006,07,08,03,47,11.90
2006,07,08,03,48,11.90
2006,07,08,03,49,11.90
2006,07,08,03,50,11.90
2006,07,08,03,51,11.90
2006,07,08,03,52,11.90
2006,07,08,03,53,11.90
2006,07,08,03,54,11.90
2006,07,08,03,55,11.80
2006,07,08,03,56,11.80
2006,07,08,03,57,11.80
2006,07,08,03,58,11.80
2006,07,08,03,59,11.80
2006,07,08,04,00,11.90
2006,07,08,04,01,11.90
2006,07,08,04,02,11.90
2006,07,08,04,03,11.90
2006,07,08,04,04,11.90
2006,07,08,04,05,11.90
2006,07,08,04,06,11.90
2006,07,08,04,07,11.90
2006,07,08,04,08,11.90
2006,07,08,04,09,11.90
2006,07,08,04,10,11.90
2006,07,08,04,11,11.90
2006,07,08,04,12,11.90
2006,07,08,04,13,11.90
2006,07,08,04,14,11.90
2006,07,08,04,15,11.90
2006,07,08,04,16,11.90
2006,07,08,04,17,11.90
2006,07,08,04,18,11.90
2006,07,08,04,19,11.90
2006,07,08,04,20,11.80
2006,07,08,04,21,11.80
2006,07,08,04,22,11.80
2006,07,08,04,23,11.80
2006,07,08,04,24,11.80
2006,07,08,04,25,11.80
2006,07,08,04,26,11.80
2006,07,08,04,27,11.80
2006,07,08,04,28,11.80
2006,07,08,04,29,11.80
2006,07,08,04,30,11.80
2006,07,08,04,31,11.80
2006,07,08,04,32,11.80
2006,07,08,04,33,11.80
2006,07,08,04,34,11.80
2006,07,08,04,35,11.80
2006,07,08,04,36,11.80
2006,07,08,04,37,11.80
2006,07,08,04,38,11.80
2006,07,08,04,39,11.80
2006,07,08,04,40,11.70
2006,07,08,04,41,11.70
2006,07,08,04,42,11.70
2006,07,08,04,43,11.70
2006,07,08,04,44,11.70
2006,07,08,04,45,11.60
2006,07,08,04,46,11.60
2006,07,08,04,47,11.60
2006,07,08,04,48,11.60
2006,07,08,04,49,11.60
2006,07,08,04,50,11.70
2006,07,08,04,51,11.70
2006,07,08,04,52,11.70
2006,07,08,04,53,11.70
2006,07,08,04,54,11.70
2006,07,08,04,55,11.70
2006,07,08,04,56,11.70
2006,07,08,04,57,11.70
2006,07,08,04,58,11.70
2006,07,08,04,59,11.70
2006,07,08,05,00,11.70
2006,07,08,05,01,11.70
2006,07,08,05,02,11.70
2006,07,08,05,03,11.70
2006,07,08,05,04,11.70
2006,07,08,05,05,11.70
2006,07,08,05,06,11.70
2006,07,08,05,07,11.70
2006,07,08,05,08,11.70
2006,07,08,05,09,11.70
2006,07,08,05,10,11.70
2006,07,08,05,11,11.70
2006,07,08,05,12,11.70
2006,07,08,05,13,11.70
2006,07,08,05,14,11.70
2006,07,08,05,15,11.70
2006,07,08,05,16,11.80
2006,07,08,05,17,11.80
2006,07,08,05,18,11.80
2006,07,08,05,19,11.80
2006,07,08,05,20,11.80
2006,07,08,05,21,11.80
2006,07,08,05,22,11.80
2006,07,08,05,23,11.80
2006,07,08,05,24,11.80
2006,07,08,05,25,11.80
2006,07,08,05,26,11.80
2006,07,08,05,27,11.80
2006,07,08,05,28,11.80
2006,07,08,05,29,11.80
2006,07,08,05,30,11.70
2006,07,08,05,31,11.70
2006,07,08,05,32,11.70
2006,07,08,05,33,11.70
2006,07,08,05,34,11.70
2006,07,08,05,35,11.70
2006,07,08,05,36,11.70
2006,07,08,05,37,11.70
2006,07,08,05,38,11.80
2006,07,08,05,39,11.80
2006,07,08,05,40,11.80
2006,07,08,05,41,11.80
2006,07,08,05,42,11.80
2006,07,08,05,43,11.80
2006,07,08,05,44,11.70
2006,07,08,05,45,11.70
2006,07,08,05,46,11.70
2006,07,08,05,47,11.70
2006,07,08,05,48,11.70
2006,07,08,05,49,11.70
2006,07,08,05,50,11.70
2006,07,08,05,51,11.80
2006,07,08,05,52,11.80
2006,07,08,05,53,11.80
2006,07,08,05,54,11.80
2006,07,08,05,55,11.80
2006,07,08,05,56,11.80
2006,07,08,05,57,11.80
2006,07,08,05,58,11.80
2006,07,08,05,59,11.80
2006,07,08,06,00,11.90
2006,07,08,06,01,11.90
2006,07,08,06,02,12.00
2006,07,08,06,03,12.00
2006,07,08,06,04,12.10
2006,07,08,06,05,12.20
2006,07,08,06,06,12.20
2006,07,08,06,07,12.30
2006,07,08,06,08,12.30
2006,07,08,06,09,12.30
2006,07,08,06,10,12.40
2006,07,08,06,11,12.40
2006,07,08,06,12,12.40
2006,07,08,06,13,12.50
2006,07,08,06,14,12.50
2006,07,08,06,15,12.60
2006,07,08,06,16,12.60
2006,07,08,06,17,12.70
2006,07,08,06,18,12.70
2006,07,08,06,19,12.70
2006,07,08,06,20,12.80
2006,07,08,06,21,12.80
2006,07,08,06,22,12.80
2006,07,08,06,23,12.90
2006,07,08,06,24,12.90
2006,07,08,06,25,13.00
2006,07,08,06,26,13.10
2006,07,08,06,27,13.10
2006,07,08,06,28,13.20
2006,07,08,06,29,13.20
2006,07,08,06,30,13.30
2006,07,08,06,31,13.30
2006,07,08,06,32,13.30
2006,07,08,06,33,13.30
2006,07,08,06,34,13.30
2006,07,08,06,35,13.30
2006,07,08,06,36,13.30
2006,07,08,06,37,13.30
2006,07,08,06,38,13.30
2006,07,08,06,39,13.30
2006,07,08,06,40,13.30
2006,07,08,06,41,13.30
2006,07,08,06,42,13.30
2006,07,08,06,43,13.30
2006,07,08,06,44,13.30
2006,07,08,06,45,13.30
2006,07,08,06,46,13.30
2006,07,08,06,47,13.20
2006,07,08,06,48,13.20
2006,07,08,06,49,13.20
2006,07,08,06,50,13.30
2006,07,08,06,51,13.30
2006,07,08,06,52,13.30
2006,07,08,06,53,13.50
2006,07,08,06,54,13.60
2006,07,08,06,55,13.70
2006,07,08,06,56,13.80
2006,07,08,06,57,13.90
2006,07,08,06,58,14.00
2006,07,08,06,59,14.20
2006,07,08,07,00,14.20
2006,07,08,07,01,14.30
2006,07,08,07,02,14.30
2006,07,08,07,03,14.40
2006,07,08,07,04,14.50
2006,07,08,07,05,14.50
2006,07,08,07,06,14.60
2006,07,08,07,07,14.70
2006,07,08,07,08,14.70
2006,07,08,07,09,14.80
2006,07,08,07,10,14.80
2006,07,08,07,11,14.90
2006,07,08,07,12,15.00
2006,07,08,07,13,15.10
2006,07,08,07,14,15.20
2006,07,08,07,15,15.30
2006,07,08,07,16,15.30
2006,07,08,07,17,15.40
2006,07,08,07,18,15.40
2006,07,08,07,19,15.50
2006,07,08,07,20,15.60
2006,07,08,07,21,15.70
2006,07,08,07,22,15.80
2006,07,08,07,23,15.80
2006,07,08,07,24,15.90
2006,07,08,07,25,15.90
2006,07,08,07,26,16.00
2006,07,08,07,27,16.10
2006,07,08,07,28,16.10
2006,07,08,07,29,16.20
2006,07,08,07,30,16.20
2006,07,08,07,31,16.20
2006,07,08,07,32,16.20
2006,07,08,07,33,16.30
2006,07,08,07,34,16.30
2006,07,08,07,35,16.30
2006,07,08,07,36,16.40
2006,07,08,07,37,16.40
2006,07,08,07,38,16.60
2006,07,08,07,39,16.60
2006,07,08,07,40,16.70
2006,07,08,07,41,16.70
2006,07,08,07,42,16.70
2006,07,08,07,43,16.80
2006,07,08,07,44,16.80
2006,07,08,07,45,16.70
2006,07,08,07,46,16.70
2006,07,08,07,47,16.70
2006,07,08,07,48,16.70
2006,07,08,07,49,16.70
2006,07,08,07,50,16.70
2006,07,08,07,51,16.60
2006,07,08,07,52,16.50
2006,07,08,07,53,16.40
2006,07,08,07,54,16.40
2006,07,08,07,55,16.40
2006,07,08,07,56,16.40
2006,07,08,07,57,16.30
2006,07,08,07,58,16.30
2006,07,08,07,59,16.20
2006,07,08,08,00,16.20
2006,07,08,08,01,16.20
2006,07,08,08,02,16.20
2006,07,08,08,03,16.10
2006,07,08,08,04,16.20
2006,07,08,08,05,16.20
2006,07,08,08,06,16.30
2006,07,08,08,07,16.40
2006,07,08,08,08,16.50
2006,07,08,08,09,16.60
2006,07,08,08,10,16.70
2006,07,08,08,11,16.70
2006,07,08,08,12,16.90
2006,07,08,08,13,16.90
2006,07,08,08,14,17.00
2006,07,08,08,15,17.10
2006,07,08,08,16,17.10
2006,07,08,08,17,17.20
2006,07,08,08,18,17.20
2006,07,08,08,19,17.30
2006,07,08,08,20,17.30
2006,07,08,08,21,17.30
2006,07,08,08,22,17.40
2006,07,08,08,23,17.40
2006,07,08,08,24,17.40
2006,07,08,08,25,17.50
2006,07,08,08,26,17.50
2006,07,08,08,27,17.50
2006,07,08,08,28,17.60
2006,07,08,08,29,17.60
2006,07,08,08,30,17.60
2006,07,08,08,31,17.60
2006,07,08,08,32,17.60
2006,07,08,08,33,17.60
2006,07,08,08,34,17.60
2006,07,08,08,35,17.60
2006,07,08,08,36,17.60
2006,07,08,08,37,17.60
2006,07,08,08,38,17.50
2006,07,08,08,39,17.50
2006,07,08,08,40,17.50
2006,07,08,08,41,17.50
2006,07,08,08,42,17.50
2006,07,08,08,43,17.40
2006,07,08,08,44,17.20
2006,07,08,08,45,17.20
2006,07,08,08,46,17.10
2006,07,08,08,47,17.00
2006,07,08,08,48,16.90
2006,07,08,08,49,16.90
2006,07,08,08,50,16.90
2006,07,08,08,51,16.90
2006,07,08,08,52,16.90
2006,07,08,08,53,16.80
2006,07,08,08,54,16.80
2006,07,08,08,55,16.80
2006,07,08,08,56,16.90
2006,07,08,08,57,16.90
2006,07,08,08,58,16.80
2006,07,08,08,59,16.90
2006,07,08,09,00,17.00
2006,07,08,09,01,17.00
2006,07,08,09,02,16.90
2006,07,08,09,03,16.90
2006,07,08,09,04,16.90
2006,07,08,09,05,16.90
2006,07,08,09,06,17.00
2006,07,08,09,07,17.00
2006,07,08,09,08,17.00
2006,07,08,09,09,17.00
2006,07,08,09,10,17.00
2006,07,08,09,11,17.00
2006,07,08,09,12,17.10
2006,07,08,09,13,17.10
2006,07,08,09,14,17.10
2006,07,08,09,15,17.20
2006,07,08,09,16,17.30
2006,07,08,09,17,17.30
2006,07,08,09,18,17.30
2006,07,08,09,19,17.30
2006,07,08,09,20,17.30
2006,07,08,09,21,17.30
2006,07,08,09,22,17.30
2006,07,08,09,23,17.30
2006,07,08,09,24,17.30
2006,07,08,09,25,17.30
2006,07,08,09,26,17.40
2006,07,08,09,27,17.40
2006,07,08,09,28,17.40
2006,07,08,09,29,17.50
2006,07,08,09,30,17.60
2006,07,08,09,31,17.70
2006,07,08,09,32,17.70
2006,07,08,09,33,17.80
2006,07,08,09,34,17.80
2006,07,08,09,35,17.90
2006,07,08,09,36,17.90
2006,07,08,09,37,17.90
2006,07,08,09,38,18.00
2006,07,08,09,39,18.10
2006,07,08,09,40,18.20
2006,07,08,09,41,18.20
2006,07,08,09,42,18.20
2006,07,08,09,43,18.20
2006,07,08,09,44,18.20
2006,07,08,09,45,18.20
2006,07,08,09,46,18.20
2006,07,08,09,47,18.20
2006,07,08,09,48,18.20
2006,07,08,09,49,18.20
2006,07,08,09,50,18.20
2006,07,08,09,51,18.30
2006,07,08,09,52,18.30
2006,07,08,09,53,18.40
2006,07,08,09,54,18.40
2006,07,08,09,55,18.40
2006,07,08,09,56,18.30
2006,07,08,09,57,18.30
2006,07,08,09,58,18.30
2006,07,08,09,59,18.30
2006,07,08,10,00,18.20
2006,07,08,10,01,18.20
2006,07,08,10,02,18.00
2006,07,08,10,03,17.90
2006,07,08,10,04,18.00
2006,07,08,10,05,18.10
2006,07,08,10,06,18.10
2006,07,08,10,07,18.10
2006,07,08,10,08,18.10
2006,07,08,10,09,18.10
2006,07,08,10,10,18.10
2006,07,08,10,11,18.10
2006,07,08,10,12,18.10
2006,07,08,10,13,18.20
2006,07,08,10,14,18.20
2006,07,08,10,15,18.20
2006,07,08,10,16,18.20
2006,07,08,10,17,18.10
2006,07,08,10,18,18.10
2006,07,08,10,19,18.10
2006,07,08,10,20,18.20
2006,07,08,10,21,18.10
2006,07,08,10,22,18.10
2006,07,08,10,23,18.10
2006,07,08,10,24,18.10
2006,07,08,10,25,18.20
2006,07,08,10,26,18.10
2006,07,08,10,27,18.10
2006,07,08,10,28,18.00
2006,07,08,10,29,17.90
2006,07,08,10,30,17.90
2006,07,08,10,31,17.90
2006,07,08,10,32,17.80
2006,07,08,10,33,17.80
2006,07,08,10,34,17.70
2006,07,08,10,35,17.80
2006,07,08,10,36,17.80
2006,07,08,10,37,17.80
2006,07,08,10,38,17.80
2006,07,08,10,39,17.90
2006,07,08,10,40,18.00
2006,07,08,10,41,18.10
2006,07,08,10,42,18.20
2006,07,08,10,43,18.20
2006,07,08,10,44,18.30
2006,07,08,10,45,18.40
2006,07,08,10,46,18.50
2006,07,08,10,47,18.60
2006,07,08,10,48,18.60
2006,07,08,10,49,18.60
2006,07,08,10,50,18.60
2006,07,08,10,51,18.70
2006,07,08,10,52,18.70
2006,07,08,10,53,18.80
2006,07,08,10,54,18.90
2006,07,08,10,55,18.90
2006,07,08,10,56,18.90
2006,07,08,10,57,18.80
2006,07,08,10,58,18.70
2006,07,08,10,59,18.60
2006,07,08,11,00,18.60
2006,07,08,11,01,18.60
2006,07,08,11,02,18.50
2006,07,08,11,03,18.30
2006,07,08,11,04,18.40
2006,07,08,11,05,18.50
2006,07,08,11,06,18.60
2006,07,08,11,07,18.70
2006,07,08,11,08,18.80
2006,07,08,11,09,18.80
2006,07,08,11,10,18.90
2006,07,08,11,11,18.90
2006,07,08,11,12,18.90
2006,07,08,11,13,18.90
2006,07,08,11,14,19.00
2006,07,08,11,15,19.10
2006,07,08,11,16,19.10
2006,07,08,11,17,19.20
2006,07,08,11,18,19.20
2006,07,08,11,19,19.20
2006,07,08,11,20,19.40
2006,07,08,11,21,19.40
2006,07,08,11,22,19.40
2006,07,08,11,23,19.40
2006,07,08,11,24,19.50
2006,07,08,11,25,19.50
2006,07,08,11,26,19.60
2006,07,08,11,27,19.70
2006,07,08,11,28,19.90
2006,07,08,11,29,19.90
2006,07,08,11,30,19.90
2006,07,08,11,31,19.90
2006,07,08,11,32,19.90
2006,07,08,11,33,19.90
2006,07,08,11,34,19.90
2006,07,08,11,35,20.10
2006,07,08,11,36,20.10
2006,07,08,11,37,20.10
2006,07,08,11,38,20.10
2006,07,08,11,39,20.10
2006,07,08,11,40,20.10
2006,07,08,11,41,20.10
2006,07,08,11,42,20.10
2006,07,08,11,43,20.00
2006,07,08,11,44,19.90
2006,07,08,11,45,19.90
2006,07,08,11,46,20.00
2006,07,08,11,47,20.10
2006,07,08,11,48,20.10
2006,07,08,11,49,20.10
2006,07,08,11,50,20.20
2006,07,08,11,51,20.20
2006,07,08,11,52,20.40
2006,07,08,11,53,20.40
2006,07,08,11,54,20.60
2006,07,08,11,55,20.60
2006,07,08,11,56,20.60
2006,07,08,11,57,20.50
2006,07,08,11,58,20.50
2006,07,08,11,59,20.50
2006,07,08,12,00,20.50
2006,07,08,12,01,20.50
2006,07,08,12,02,20.60
2006,07,08,12,03,20.70
2006,07,08,12,04,20.70
2006,07,08,12,05,20.70
2006,07,08,12,06,20.70
2006,07,08,12,07,20.70
2006,07,08,12,08,20.70
2006,07,08,12,09,20.70
2006,07,08,12,10,20.60
2006,07,08,12,11,20.60
2006,07,08,12,12,20.60
2006,07,08,12,13,20.50
2006,07,08,12,14,20.50
2006,07,08,12,15,20.40
2006,07,08,12,16,20.20
2006,07,08,12,17,20.40
2006,07,08,12,18,20.40
2006,07,08,12,19,20.40
2006,07,08,12,20,20.30
2006,07,08,12,21,20.30
2006,07,08,12,22,20.30
2006,07,08,12,23,20.30
2006,07,08,12,24,20.40
2006,07,08,12,25,20.30
2006,07,08,12,26,20.30
2006,07,08,12,27,20.30
2006,07,08,12,28,20.20
2006,07,08,12,29,20.20
2006,07,08,12,30,20.30
2006,07,08,12,31,20.30
2006,07,08,12,32,20.30
2006,07,08,12,33,20.40
2006,07,08,12,34,20.50
2006,07,08,12,35,20.60
2006,07,08,12,36,20.70
2006,07,08,12,37,20.70
2006,07,08,12,38,20.70
2006,07,08,12,39,20.70
2006,07,08,12,40,20.60
2006,07,08,12,41,20.60
2006,07,08,12,42,20.70
2006,07,08,12,43,20.60
2006,07,08,12,44,20.60
2006,07,08,12,45,20.40
2006,07,08,12,46,20.30
2006,07,08,12,47,20.40
2006,07,08,12,48,20.50
2006,07,08,12,49,20.60
2006,07,08,12,50,20.60
2006,07,08,12,51,20.60
2006,07,08,12,52,20.50
2006,07,08,12,53,20.50
2006,07,08,12,54,20.50
2006,07,08,12,55,20.60
2006,07,08,12,56,20.60
2006,07,08,12,57,20.60
2006,07,08,12,58,20.80
2006,07,08,12,59,20.90
2006,07,08,13,00,21.00
2006,07,08,13,01,21.10
2006,07,08,13,02,21.00
2006,07,08,13,03,20.90
2006,07,08,13,04,20.80
2006,07,08,13,05,20.80
2006,07,08,13,06,20.80
2006,07,08,13,07,20.80
2006,07,08,13,08,20.80
2006,07,08,13,09,20.80
2006,07,08,13,10,20.90
2006,07,08,13,11,20.80
2006,07,08,13,12,20.70
2006,07,08,13,13,20.70
2006,07,08,13,14,20.60
2006,07,08,13,15,20.50
2006,07,08,13,16,20.50
2006,07,08,13,17,20.50
2006,07,08,13,18,20.50
2006,07,08,13,19,20.50
2006,07,08,13,20,20.60
2006,07,08,13,21,20.70
2006,07,08,13,22,20.80
2006,07,08,13,23,20.90
2006,07,08,13,24,21.00
2006,07,08,13,25,21.10
2006,07,08,13,26,21.30
2006,07,08,13,27,21.30
2006,07,08,13,28,21.40
2006,07,08,13,29,21.60
2006,07,08,13,30,21.70
2006,07,08,13,31,21.70
2006,07,08,13,32,21.80
2006,07,08,13,33,21.90
2006,07,08,13,34,22.00
2006,07,08,13,35,22.00
2006,07,08,13,36,22.10
2006,07,08,13,37,22.20
2006,07,08,13,38,22.40
2006,07,08,13,39,22.50
2006,07,08,13,40,22.60
2006,07,08,13,41,22.70
2006,07,08,13,42,22.90
2006,07,08,13,43,23.00
2006,07,08,13,44,23.10
2006,07,08,13,45,23.30
2006,07,08,13,46,23.30
2006,07,08,13,47,23.40
2006,07,08,13,48,23.50
2006,07,08,13,49,23.60
2006,07,08,13,50,23.80
2006,07,08,13,51,23.90
2006,07,08,13,52,24.10
2006,07,08,13,53,24.10
2006,07,08,13,54,24.10
2006,07,08,13,55,24.00
2006,07,08,13,56,23.90
2006,07,08,13,57,24.00
2006,07,08,13,58,24.10
2006,07,08,13,59,24.20
2006,07,08,14,00,24.20
2006,07,08,14,01,24.40
2006,07,08,14,02,24.50
2006,07,08,14,03,24.50
2006,07,08,14,04,24.60
2006,07,08,14,05,24.60
2006,07,08,14,06,24.70
2006,07,08,14,07,24.70
2006,07,08,14,08,24.70
2006,07,08,14,09,24.70
2006,07,08,14,10,24.70
2006,07,08,14,11,24.80
2006,07,08,14,12,24.80
2006,07,08,14,13,24.80
2006,07,08,14,14,24.80
2006,07,08,14,15,24.70
2006,07,08,14,16,24.70
2006,07,08,14,17,24.80
2006,07,08,14,18,24.90
2006,07,08,14,19,24.90
2006,07,08,14,20,24.90
2006,07,08,14,21,24.90
2006,07,08,14,22,24.80
2006,07,08,14,23,24.80
2006,07,08,14,24,24.90
2006,07,08,14,25,25.10
2006,07,08,14,26,25.20
2006,07,08,14,27,25.20
2006,07,08,14,28,25.20
2006,07,08,14,29,25.40
2006,07,08,14,30,25.40
2006,07,08,14,31,25.50
2006,07,08,14,32,25.40
2006,07,08,14,33,25.30
2006,07,08,14,34,25.20
2006,07,08,14,35,25.10
2006,07,08,14,36,25.00
2006,07,08,14,37,24.90
2006,07,08,14,38,24.80
2006,07,08,14,39,24.80
2006,07,08,14,40,24.60
2006,07,08,14,41,24.50
2006,07,08,14,42,24.40
2006,07,08,14,43,24.30
2006,07,08,14,44,24.10
2006,07,08,14,45,24.00
2006,07,08,14,46,23.90
2006,07,08,14,47,23.80
2006,07,08,14,48,23.60
2006,07,08,14,49,23.60
2006,07,08,14,50,23.70
2006,07,08,14,51,23.70
2006,07,08,14,52,23.70
2006,07,08,14,53,23.70
2006,07,08,14,54,23.70
2006,07,08,14,55,23.80
2006,07,08,14,56,23.90
2006,07,08,14,57,24.10
2006,07,08,14,58,24.10
2006,07,08,14,59,24.10
2006,07,08,15,00,24.10
2006,07,08,15,01,24.10
2006,07,08,15,02,24.20
2006,07,08,15,03,24.30
2006,07,08,15,04,24.40
2006,07,08,15,05,24.50
2006,07,08,15,06,24.70
2006,07,08,15,07,24.70
2006,07,08,15,08,24.70
2006,07,08,15,09,24.50
2006,07,08,15,10,24.40
2006,07,08,15,11,24.50
2006,07,08,15,12,24.50
2006,07,08,15,13,24.70
2006,07,08,15,14,24.80
2006,07,08,15,15,24.80
2006,07,08,15,16,24.90
2006,07,08,15,17,25.10
2006,07,08,15,18,25.20
2006,07,08,15,19,25.20
2006,07,08,15,20,25.20
2006,07,08,15,21,24.90
2006,07,08,15,22,24.60
2006,07,08,15,23,24.60
2006,07,08,15,24,24.50
2006,07,08,15,25,24.40
2006,07,08,15,26,24.40
2006,07,08,15,27,24.40
2006,07,08,15,28,24.50
2006,07,08,15,29,24.60
2006,07,08,15,30,24.80
2006,07,08,15,31,24.90
2006,07,08,15,32,24.90
2006,07,08,15,33,24.90
2006,07,08,15,34,24.70
2006,07,08,15,35,24.70
2006,07,08,15,36,24.60
2006,07,08,15,37,24.50
2006,07,08,15,38,24.40
2006,07,08,15,39,24.50
2006,07,08,15,40,24.60
2006,07,08,15,41,24.70
2006,07,08,15,42,24.80
2006,07,08,15,43,24.90
2006,07,08,15,44,25.00
2006,07,08,15,45,25.20
2006,07,08,15,46,25.40
2006,07,08,15,47,25.50
2006,07,08,15,48,25.50
2006,07,08,15,49,25.60
2006,07,08,15,50,25.80
2006,07,08,15,51,26.00
2006,07,08,15,52,26.00
2006,07,08,15,53,26.00
2006,07,08,15,54,26.00
2006,07,08,15,55,26.00
2006,07,08,15,56,26.00
2006,07,08,15,57,26.10
2006,07,08,15,58,26.10
2006,07,08,15,59,26.10
2006,07,08,16,00,26.00
2006,07,08,16,01,26.00
2006,07,08,16,02,26.00
2006,07,08,16,03,25.90
2006,07,08,16,04,25.80
2006,07,08,16,05,25.80
2006,07,08,16,06,25.70
2006,07,08,16,07,25.70
2006,07,08,16,08,25.60
2006,07,08,16,09,25.40
2006,07,08,16,10,25.30
2006,07,08,16,11,25.30
2006,07,08,16,12,25.40
2006,07,08,16,13,25.50
2006,07,08,16,14,25.50
2006,07,08,16,15,25.50
2006,07,08,16,16,25.60
2006,07,08,16,17,25.70
2006,07,08,16,18,25.80
2006,07,08,16,19,25.80
2006,07,08,16,20,25.60
2006,07,08,16,21,25.60
2006,07,08,16,22,25.40
2006,07,08,16,23,25.40
2006,07,08,16,24,25.20
2006,07,08,16,25,25.00
2006,07,08,16,26,25.00
2006,07,08,16,27,25.00
2006,07,08,16,28,25.00
2006,07,08,16,29,25.10
2006,07,08,16,30,25.20
2006,07,08,16,31,25.30
2006,07,08,16,32,25.40
2006,07,08,16,33,25.30
2006,07,08,16,34,25.40
2006,07,08,16,35,25.40
2006,07,08,16,36,25.40
2006,07,08,16,37,25.40
2006,07,08,16,38,25.40
2006,07,08,16,39,25.30
2006,07,08,16,40,25.20
2006,07,08,16,41,25.30
2006,07,08,16,42,25.50
2006,07,08,16,43,25.60
2006,07,08,16,44,25.60
2006,07,08,16,45,25.60
2006,07,08,16,46,25.60
2006,07,08,16,47,25.60
2006,07,08,16,48,26.20
2006,07,08,16,49,26.40
2006,07,08,16,50,26.50
2006,07,08,16,51,26.60
2006,07,08,16,52,26.60
2006,07,08,16,53,26.50
2006,07,08,16,54,26.40
2006,07,08,16,55,26.30
2006,07,08,16,56,26.20
2006,07,08,16,57,26.30
2006,07,08,16,58,26.20
2006,07,08,16,59,26.20
2006,07,08,17,00,26.30
2006,07,08,17,01,26.20
2006,07,08,17,02,26.20
2006,07,08,17,03,26.00
2006,07,08,17,04,26.00
2006,07,08,17,05,26.00
2006,07,08,17,06,25.80
2006,07,08,17,07,25.30
2006,07,08,17,08,25.20
2006,07,08,17,09,25.10
2006,07,08,17,10,25.10
2006,07,08,17,11,25.10
2006,07,08,17,12,25.20
2006,07,08,17,13,25.40
2006,07,08,17,14,25.50
2006,07,08,17,15,25.60
2006,07,08,17,16,25.40
2006,07,08,17,17,25.30
2006,07,08,17,18,25.20
2006,07,08,17,19,25.00